User: anonymous   Login
Location: Unspecified
(0.0000°N, 0.0000°E)
Time: 15:31:20
(UTC+02:00)
Language:

Palapa 6 Rocket - Orbit

View from above orbital plane
View from above orbital plane
View from above satellite
View from above satellite

Ground track
Ground track

The orbit data is extracted from the following two-line orbital elements,

1 20571U 90034B   15187.12220777  .00001459  00000-0  17368-3 0  9998
2 20571 022.7447 112.1058 0512453 124.9612 013.3486 14.11021096291312
Epoch (UTC): 06 July 2015 02:55:58
Eccentricity: 0.0512453
inclination: 22.7447°
perigee height: 485 km
apogee height: 1226 km
right ascension of ascending node: 112.1058°
argument of perigee: 124.9612°
revolutions per day: 14.11021096
mean anomaly at epoch: 13.3486°
orbit number at epoch: 29131

The dashed part of the orbit path shows where the satellite is in the earth's shadow,  

DLR